ATLAS CENTAUR 2 1 00694U 63047A 26061.83055835 .00001644 00000+0 19060-3 0 9994 2 00694 30.3525 233.9767 0547844 19.8376 342.2678 14.12043289130653 THOR AGENA D R/B 1 00733U 64002A 26061.61458529 .00000267 00000+0 11255-3 0 9991 2 00733 99.1228 74.5665 0031901 279.3265 80.4311 14.34015098237281 SL-3 R/B 1 00877U 64053B 26061.50630167 .00000468 00000+0 11473-3 0 9999 2 00877 65.0787 352.2960 0079444 294.5017 64.7814 14.61360281265746 SL-8 R/B 1 02802U 67045B 26061.79321223 .00000558 00000+0 16170-3 0 9993 2 02802 74.0135 0.9671 0063909 8.8833 351.3439 14.45614640 88025 SL-8 R/B 1 03230U 68040B 26061.78827480 .00003825 00000+0 28396-3 0 9993 2 03230 74.0332 327.7949 0024233 153.7986 206.4435 15.03199150 88973 OAO 2 1 03597U 68110A 26061.81533170 .00000339 00000+0 96505-4 0 9996 2 03597 34.9936 303.6053 0005173 149.5560 210.5432 14.47302890 18101 ISIS 1 1 03669U 69009A 26061.72786427 .00000194 00000+0 12134-3 0 9993 2 03669 88.4549 156.0675 1707832 103.2065 276.4365 11.30411589347740 SERT 2 1 04327U 70009A 26061.77019455 .00000000 00000+0 56135-4 0 9998 2 04327 99.2750 5.2427 0004781 172.5871 216.8800 13.58729129778959 SL-3 R/B 1 05118U 71028B 26061.79639448 .00044536 00000+0 53722-3 0 9991 2 05118 81.2332 60.5394 0014253 315.0547 44.9551 15.60445629987591 ASTEX 1 1 05560U 71089A 26061.78696816 .00000610 00000+0 15512-3 0 9990 2 05560 92.7131 149.5275 0017839 106.2185 254.0985 14.50760914861303 SL-8 R/B 1 05730U 71119B 26061.76866140 .00017064 00000+0 88580-3 0 9996 2 05730 73.8872 188.6520 0550082 156.7309 205.9819 14.37638852654492 OAO 3 (COPERNICUS) 1 06153U 72065A 26061.82303159 .00000489 00000+0 10481-3 0 9998 2 06153 35.0068 336.4374 0005946 107.0167 282.8288 14.59991185845192 ATLAS CENTAUR R/B 1 06155U 72065B 26061.46376344 .00001728 00000+0 23839-3 0 9994 2 06155 35.0029 348.0992 0034291 308.4806 51.2821 14.77663257840190 SL-8 R/B 1 08459U 75112B 26061.61670091 .00000263 00000+0 95190-4 0 9995 2 08459 74.0613 31.9223 0014599 128.0023 232.2452 14.38198646630855 SL-3 R/B 1 10114U 77057B 26061.79061211 .00015064 00000+0 31826-3 0 9993 2 10114 97.5755 233.4093 0006440 313.8244 46.2472 15.45259759667264 SEASAT 1 1 10967U 78064A 26061.78639686 .00000292 00000+0 12011-3 0 9996 2 10967 108.0127 111.0138 0002146 288.3510 71.7402 14.46154031505515 SL-14 R/B 1 11267U 79011B 26061.60519078 .00000660 00000+0 62542-4 0 9990 2 11267 82.5216 103.2948 0017629 82.2454 278.0767 14.91898251527728 SL-8 R/B 1 11574U 79089B 26061.53211795 .00000285 00000+0 94139-4 0 9993 2 11574 74.0673 104.2945 0017104 277.6823 82.2391 14.42345054435076 SL-14 R/B 1 11672U 80005B 26061.74778223 .00000710 00000+0 69342-4 0 9990 2 11672 82.5157 313.8205 0015567 180.9466 179.1727 14.90920563475455 SL-8 R/B 1 12139U 81003B 26061.71503018 .00019842 00000+0 51315-3 0 9999 2 12139 82.9395 296.4730 0262736 202.8612 156.0754 15.10656978313623 SL-3 R/B 1 12465U 81046B 26061.77568521 .00014125 00000+0 33057-3 0 9996 2 12465 81.2313 298.0461 0020138 45.6598 314.6290 15.41779847437360 SL-3 R/B 1 12904U 81103B 26061.80040513 .00006780 00000+0 30166-3 0 9994 2 12904 81.1567 221.5134 0012564 311.8549 48.1609 15.21271025972184 SL-3 R/B 1 13068U 82013B 26061.74563551 .00005676 00000+0 24637-3 0 9991 2 13068 81.1771 168.9071 0022289 201.0884 158.9432 15.21929234403291 SL-3 R/B 1 13154U 82039B 26061.76547774 .00003334 00000+0 20157-3 0 9998 2 13154 81.1579 223.9447 0029903 347.0452 13.0001 15.10031044380595 SL-3 R/B 1 13403U 82079B 26061.77617736 .00008389 00000+0 33550-3 0 9992 2 13403 81.1471 201.2385 0024816 188.1120 171.9715 15.24672458376649 SL-14 R/B 1 13553U 82092B 26061.72099935 .00000591 00000+0 63599-4 0 9997 2 13553 82.5704 147.9165 0019464 328.0161 146.7796 14.86657907327895 SL-3 R/B 1 13819U 83010B 26061.57760894 .00019515 00000+0 39583-3 0 9996 2 13819 81.1055 10.9628 0018501 73.5167 286.8109 15.46047834356846 SL-3 R/B 1 14208U 83075B 26061.79199225 .00013008 00000+0 34550-3 0 9998 2 14208 97.6131 66.1089 0019699 252.8444 107.0644 15.38214633329098 COSMOS 1536 1 14699U 84013A 26061.62770266 .00007554 00000+0 31257-3 0 9997 2 14699 82.5440 114.8705 0012856 311.3422 48.6708 15.23714150271549 SL-14 R/B 1 14820U 84027B 26061.62270188 .00000586 00000+0 64193-4 0 9990 2 14820 82.5381 251.6426 0017978 1.8919 358.2362 14.85967653246588 SL-8 R/B 1 15483U 85006B 26061.77215860 .00000196 00000+0 73556-4 0 9996 2 15483 74.0434 273.8784 0018732 193.2287 241.2485 14.37777855153039 SL-12 R/B(2) 1 15772U 85042D 26061.52790718 .00000166 00000+0 96211-4 0 9990 2 15772 71.1065 102.8608 0033575 139.8596 327.3242 14.21980154113376 SL-14 R/B 1 15945U 85069B 26061.40767142 .00000681 00000+0 74197-4 0 9994 2 15945 82.5269 31.7800 0017841 212.5320 147.4799 14.86422948171753 SL-16 R/B 1 16182U 85097B 26061.72374987 .00000025 00000+0 36487-4 0 9997 2 16182 71.0037 155.2185 0009912 267.9358 205.4325 14.16599518 86246 SL-14 R/B 1 16496U 86006B 26061.65583031 .00000737 00000+0 75874-4 0 9993 2 16496 82.5235 266.3590 0075216 296.5913 62.7610 14.86804047148164 COSMOS 1743 1 16719U 86034A 26061.51400590 .00038323 00000+0 51046-3 0 9991 2 16719 82.5297 81.3594 0002385 341.7759 18.3411 15.57962222179133 SL-14 R/B 1 16792U 86046B 26061.53296465 .00000565 00000+0 62365-4 0 9995 2 16792 82.4783 86.9461 0021620 250.4132 109.4750 14.85582066125347 SL-14 R/B 1 16882U 86055B 26061.68244705 .00000557 00000+0 61425-4 0 9998 2 16882 82.5213 133.2599 0018796 0.1945 162.3675 14.85635037118327 AJISAI (EGS) 1 16908U 86061A 26061.73969318 -.00000078 00000+0 13300-3 0 9991 2 16908 50.0080 114.7196 0011247 269.1149 209.0950 12.44515513467132 COSMOS 1812 1 17295U 87003A 26061.93981992 .01654884 -12116-5 76322-3 0 9993 2 17295 82.4722 203.3427 0007366 288.5347 71.5142 16.21806526143398 SL-14 R/B 1 17567U 87024B 26061.56897892 .00000543 00000+0 59098-4 0 9992 2 17567 82.5254 99.4581 0016694 285.6736 74.2638 14.86124082 87071 COSMOS 1833 1 17589U 87027A 26061.78131701 -.00000132 00000+0 -44856-4 0 9995 2 17589 70.9233 340.5371 0024564 224.0710 135.8453 14.13056234 9340 SL-16 R/B 1 17590U 87027B 26061.77500489 -.00000182 00000+0 -66724-4 0 9992 2 17590 71.0019 291.0670 0003751 157.3546 202.7743 14.17166614 14360 SL-14 R/B 1 17912U 87038B 26061.76238278 .00000534 00000+0 59139-4 0 9996 2 17912 82.5014 303.3337 0019075 183.0305 177.0799 14.85362054 78201 COSMOS 1844 1 17973U 87041A 26061.39953610 -.00000048 00000+0 18644-6 0 9999 2 17973 70.8992 49.5518 0029611 28.9163 331.3591 14.14553253 2554 SL-14 R/B 1 18153U 87055B 26061.80790031 .00000721 00000+0 80186-4 0 9992 2 18153 82.5027 355.5152 0021711 39.7829 320.4974 14.85619388 68916 COSMOS 1867 1 18187U 87060A 26061.80442085 -.00000004 00000+0 36060-4 0 9995 2 18187 65.0119 325.9869 0014388 278.2114 81.7338 14.31501715 18951 SL-14 R/B 1 18749U 88001B 26061.80271244 .00000723 00000+0 80829-4 0 9991 2 18749 82.5141 201.8362 0016589 260.3883 99.5459 14.85517506 41001 COSMOS 1933 1 18958U 88020A 26061.60477954 .00005011 00000+0 24571-3 0 9994 2 18958 82.5096 257.9238 0003315 208.9472 151.1579 15.17907098 49158 SL-3 R/B 1 19046U 88032B 26061.75377651 .00007082 00000+0 33134-3 0 9990 2 19046 97.5176 45.0297 0024088 257.5714 102.2825 15.19808478 51059 SL-16 R/B 1 19120U 88039B 26061.51126500 .00000144 00000+0 90974-4 0 9997 2 19120 71.0128 83.7279 0022354 344.9642 15.0816 14.19615352957366 COSMOS 1953 1 19210U 88050A 26061.75150916 .00010680 00000+0 38458-3 0 9998 2 19210 82.5116 165.2225 0012172 145.0303 215.1738 15.28371852 36727 SL-8 R/B 1 19257U 88053B 26061.65410887 .00000304 00000+0 10705-3 0 9994 2 19257 74.0469 125.4351 0021257 305.7809 216.9762 14.38910760975582 COSMOS 1975 1 19573U 88093A 26061.65223788 .00009226 00000+0 33661-3 0 9999 2 19573 82.5201 124.7490 0011484 187.6591 172.4475 15.27939863 18335 SL-14 R/B 1 19574U 88093B 26061.46664484 .00000720 00000+0 79988-4 0 9994 2 19574 82.5290 48.8250 0022171 64.0529 56.3050 14.85645946999963 SL-16 R/B 1 19650U 88102B 26061.70015642 -.00000094 00000+0 -23193-4 0 9996 2 19650 71.0000 166.2026 0013519 12.2660 347.8790 14.16149362925900 INTERCOSMOS 24 1 20261U 89080A 26061.57452880 .00000780 00000+0 23149-3 0 9996 2 20261 82.6033 109.0376 1186853 309.3514 40.8085 12.59544974665909 SL-14 R/B 1 20262U 89080C 26061.75412985 .00000744 00000+0 22146-3 0 9995 2 20262 82.5971 177.6372 1230299 200.5981 154.1094 12.50483090659286 DELTA 1 R/B 1 20323U 89089B 26061.58525407 .00000451 00000+0 11989-3 0 9995 2 20323 97.0711 270.1538 0070022 144.0950 216.4983 14.50656335894706 ARIANE 40 R/B 1 20443U 90005H 26061.72542534 .00000321 00000+0 11570-3 0 9996 2 20443 98.3099 122.5940 0009427 220.2494 139.7998 14.39864935891805 DELTA 2 R/B(1) 1 20453U 90008B 26061.44271042 .00074557 00000+0 90521-3 0 9997 2 20453 35.6028 222.3764 0086982 191.5547 168.3190 15.54850817925009 COSMOS 2058 1 20465U 90010A 26061.43116951 .00005022 00000+0 29680-3 0 9998 2 20465 82.4664 54.5789 0009901 7.4003 352.7371 15.11242251941141 SL-14 R/B 1 20466U 90010B 26061.80733431 .00000485 00000+0 55834-4 0 9997 2 20466 82.4992 273.8552 0018973 326.3640 33.6369 14.83561811927464 SL-14 R/B 1 20511U 90018B 26061.54850447 .00000644 00000+0 77763-4 0 9996 2 20511 82.5190 229.7650 0017578 113.6977 246.6084 14.82135482921526 HST 1 20580U 90037B 26061.37345004 .00009122 00000+0 30343-3 0 9994 2 20580 28.4700 89.9045 0001638 52.0942 307.9801 15.29345912772198 SL-16 R/B 1 20625U 90046B 26061.76939861 -.00000167 00000+0 -61340-4 0 9991 2 20625 71.0004 312.4485 0016107 308.9570 51.0117 14.15014801847417 COSMOS 2084 1 20663U 90055A 26061.81474518 .00003481 00000+0 25332-3 0 9992 2 20663 62.7923 359.0238 0018174 188.4625 171.6172 15.05598986935281 SL-6 R/B(2) 1 20666U 90055D 26061.78800510 .00002402 00000+0 18863-3 0 9999 2 20666 62.7820 277.3217 0023679 345.3200 14.7209 15.03555063937151 SL-8 R/B 1 20775U 90078B 26061.58658146 .00016433 00000+0 48266-3 0 9998 2 20775 82.8991 257.6993 0363985 37.8564 324.7656 14.88781381808242 SL-8 R/B 1 21088U 91006B 26061.80681642 .00000049 00000+0 34070-4 0 9995 2 21088 82.9463 175.1623 0023437 56.9103 55.3984 13.77493276763123 OKEAN-3 1 21397U 91039A 26061.76334032 .00003815 00000+0 26828-3 0 9992 2 21397 82.5201 343.5519 0014363 3.0672 357.0640 15.04744684863990 COSMOS 2151 1 21422U 91042A 26061.81278819 .00002206 00000+0 17467-3 0 9993 2 21422 82.4931 90.3116 0014145 84.1054 276.1782 15.00072578862168 SL-14 R/B 1 21423U 91042B 26061.80256556 .00000601 00000+0 73116-4 0 9998 2 21423 82.4910 226.6410 0015580 263.2484 96.6957 14.81821006852050 ERS-1 1 21574U 91050A 26061.67670438 .00000386 00000+0 13827-3 0 9990 2 21574 98.7886 79.7350 0031255 221.5678 138.3133 14.39442840814728 ARIANE 40 R/B 1 21610U 91050F 26061.74433943 .00000361 00000+0 12044-3 0 9990 2 21610 98.2027 114.2410 0004374 96.3153 263.8536 14.42887563817993 INTERCOSMOS 25 1 21819U 91086A 26061.80558946 .00001593 00000+0 30564-3 0 9993 2 21819 82.6065 314.1685 1487069 131.7631 242.0557 12.11977255495851 SL-8 R/B 1 21876U 92008B 26061.66886697 .00000007 00000+0 -90983-5 0 9995 2 21876 82.9228 273.0023 0035199 152.4647 271.6819 13.75969834708453 SL-8 R/B 1 21938U 92020B 26061.79411639 .00000082 00000+0 69022-4 0 9993 2 21938 82.9340 158.8798 0027928 318.8708 162.2505 13.75548515700181 USA 81 1 21949U 92023A 26061.74288510 .00000209 00000+0 70113-4 0 9997 2 21949 85.0098 135.4483 0002637 83.1586 276.9907 14.32365171 93795 COSMOS 2219 1 22219U 92076A 26061.37645188 .00000333 00000+0 19930-3 0 9990 2 22219 71.0614 33.3548 0019372 216.8071 143.1723 14.14088325717349 SL-16 R/B 1 22220U 92076B 26061.78606193 .00000100 00000+0 73517-4 0 9994 2 22220 70.9997 202.9145 0010655 109.0576 354.1876 14.16859688720851 COSMOS 2221 1 22236U 92080A 26061.68200046 .00002064 00000+0 18071-3 0 9996 2 22236 82.5020 285.7945 0013424 211.7493 148.2921 14.96169084779744 SL-16 R/B 1 22285U 92093B 26061.31913869 -.00000104 00000+0 -28639-4 0 9995 2 22285 71.0236 19.7372 0006240 301.6294 58.4220 14.15449670712110 COSMOS 2228 1 22286U 92094A 26061.76982566 .00002927 00000+0 25056-3 0 9998 2 22286 82.5145 243.9373 0017235 329.3619 30.6595 14.97147924775026 SL-16 R/B 1 22566U 93016B 26061.78289701 .00000337 00000+0 19761-3 0 9996 2 22566 71.0056 229.6875 0011300 323.8063 36.2294 14.15304608701197 COSMOS 2242 1 22626U 93024A 26061.68218392 .00002191 00000+0 19019-3 0 9995 2 22626 82.5159 273.4208 0015715 333.9984 26.0447 14.96514959779340 SL-16 R/B 1 22803U 93059B 26061.63052620 .00000092 00000+0 69181-4 0 9999 2 22803 70.9917 26.0115 0018827 226.4888 133.4672 14.17231937678532 ARIANE 40 R/B 1 22830U 93061H 26061.78534663 .00000250 00000+0 10739-3 0 9990 2 22830 98.4932 130.8090 0009674 307.9331 52.0979 14.32856652693119 COSMOS 2278 1 23087U 94023A 26061.80824059 .00000329 00000+0 19661-3 0 9998 2 23087 71.0540 189.4927 0007614 27.3073 332.8449 14.14374940643833 SL-16 R/B 1 23088U 94023B 26061.50434279 -.00000064 00000+0 -81939-5 0 9994 2 23088 70.9986 85.9784 0005562 292.6207 67.4327 14.15013490645078 SL-16 R/B 1 23343U 94074B 26061.70219925 .00000602 00000+0 87377-4 0 9992 2 23343 97.7118 92.8027 0005331 237.3561 240.1306 14.79398306686216 SL-16 R/B 1 23405U 94077B 26061.84207684 -.00000251 00000+0 -10360-3 0 9997 2 23405 70.9850 6.8935 0003469 221.4268 138.6592 14.15562544615264 ARIANE 40+ R/B 1 23561U 95021B 26061.80737384 .00000356 00000+0 12730-3 0 9998 2 23561 98.4512 133.3829 0007357 154.7497 316.2603 14.39766516618257 SL-16 R/B 1 23705U 95058B 26061.77806798 -.00000072 00000+0 -12568-4 0 9997 2 23705 71.0209 194.7644 0011039 138.0048 222.1923 14.15492688566872 SL-16 R/B 1 24298U 96051B 26061.80058821 .00000081 00000+0 70493-4 0 9998 2 24298 70.7594 189.8191 0015707 158.1581 202.0211 14.12413535520672 ORBVIEW 2 (SEASTAR) 1 24883U 97037A 26061.44767048 .00000415 00000+0 16067-3 0 9998 2 24883 98.8553 225.5681 0003188 86.4858 273.6691 14.35488491507433 SL-16 R/B 1 25400U 98043G 26061.85558772 .00000078 00000+0 51498-4 0 9992 2 25400 98.8243 15.1711 0010551 39.2642 320.9300 14.26047932438012 SL-16 R/B 1 25407U 98045B 26061.79239831 -.00000238 00000+0 -96012-4 0 9997 2 25407 71.0112 196.0774 0006345 18.8432 341.2924 14.16189648426128 ISS (ZARYA) 1 25544U 98067A 26061.54331036 .00009842 00000+0 19033-3 0 9991 2 25544 51.6317 107.6867 0008241 149.4104 210.7366 15.48401384555220 CZ-4B R/B 1 25732U 99025C 26061.76173451 .00000071 00000+0 55310-4 0 9998 2 25732 98.6641 106.2071 0037139 6.6229 105.7278 14.18263710387180 OKEAN-O 1 25860U 99039A 26061.75741997 .00000821 00000+0 11460-3 0 9990 2 25860 97.9457 121.7189 0001470 71.5784 288.5588 14.80322247433363 SL-16 R/B 1 25861U 99039B 26061.74381841 .00000732 00000+0 99659-4 0 9996 2 25861 97.9981 120.8504 0013441 281.0263 78.9437 14.81720143435834 DELTA 2 R/B 1 25876U 99041E 26061.71644383 .00001746 00000+0 31857-3 0 9996 2 25876 51.7652 329.1309 0502317 327.8439 29.2746 14.11811317362040 HELIOS 1B 1 25977U 99064A 26061.71885212 .00002212 00000+0 24946-3 0 9991 2 25977 98.1705 323.7571 0002509 84.3567 275.7935 14.87662698684226 TERRA 1 25994U 99068A 26061.80781814 .00000548 00000+0 12082-3 0 9995 2 25994 97.9608 115.5050 0002235 168.5808 303.7174 14.61006057394073 SL-16 R/B 1 26070U 00006B 26061.59408206 .00000261 00000+0 15675-3 0 9995 2 26070 71.0013 112.7581 0017251 199.9346 160.1105 14.15823865347552 TITAN 4B R/B 1 26474U 00047B 26061.80553907 .00004966 00000+0 31231-3 0 9993 2 26474 67.9882 59.8671 0037919 43.6018 316.8117 15.09481584391872 ENVISAT 1 27386U 02009A 26061.85866175 .00000157 00000+0 64556-4 0 9990 2 27386 98.3717 15.6191 0001346 84.9534 290.4970 14.39033896258195 IDEFIX & ARIANE 42P R/B 1 27422U 02021B 26061.78353345 .00000343 00000+0 14692-3 0 9999 2 27422 98.5864 0.4726 0011181 203.1585 156.9095 14.31020279243030 AQUA 1 27424U 02022A 26061.90159334 .00001285 00000+0 26639-3 0 9998 2 27424 98.4162 29.1435 0000685 56.8605 326.0417 14.61956893267745 CZ-4B R/B 1 27432U 02024C 26061.79821735 .00000053 00000+0 50114-4 0 9995 2 27432 98.8854 115.2392 0050790 43.5863 74.0923 14.14546123228261 MIDORI II (ADEOS-II) 1 27597U 02056A 26061.80321670 .00000355 00000+0 15735-3 0 9991 2 27597 98.7757 20.2338 0001837 52.7626 307.3723 14.29278638209310 H-2A R/B 1 27601U 02056E 26061.79843520 .00000314 00000+0 12447-3 0 9990 2 27601 98.3190 22.4269 0070070 181.1545 240.0865 14.33755222213120 CZ-4B R/B 1 28059U 03049C 26061.57548907 .00000514 00000+0 12953-3 0 9992 2 28059 98.6871 56.2015 0047030 253.0831 106.5205 14.55011904185564 CZ-2C R/B 1 28222U 04012C 26061.69932580 .00058146 00000+0 62271-3 0 9994 2 28222 97.7249 126.3342 0013394 338.0425 22.0257 15.63563856203182 SL-16 R/B 1 28353U 04021B 26061.81003835 -.00000101 00000+0 -27940-4 0 9990 2 28353 70.9991 246.9308 0003690 23.6426 336.4865 14.14599702121866 CZ-4B R/B 1 28415U 04035C 26061.64487788 .00010090 00000+0 35643-3 0 9992 2 28415 97.3510 95.9723 0031865 357.0727 3.0321 15.28910749178838 CZ-2C R/B 1 28480U 04046B 26061.75414836 .00000156 00000+0 72804-4 0 9995 2 28480 98.1988 337.1695 0139468 174.9003 185.3638 14.26989516107515 ARIANE 5 R/B 1 28499U 04049H 26061.42423242 .00000995 00000+0 11591-3 0 9999 2 28499 98.2615 229.6099 0084468 15.4673 344.9092 14.85249915144714 CZ-2D R/B 1 28738U 05024B 26061.71659259 .00048095 00000+0 60696-3 0 9993 2 28738 97.3597 76.6101 0006825 64.1612 296.0348 15.59415428138695 ALOS (DAICHI) 1 28931U 06002A 26061.83134560 .00001770 00000+0 30490-3 0 9999 2 28931 98.1206 17.8218 0001191 51.3413 308.7899 14.69783066 72471 H-2A R/B 1 28932U 06002B 26061.41624412 .00012304 00000+0 61844-3 0 9996 2 28932 98.2393 207.8164 0051963 266.0614 93.4675 15.16231157 93331 RESURS-DK 1 1 29228U 06021A 26061.72457365 .00003215 00000+0 18935-3 0 9995 2 29228 69.9303 255.0413 0002475 165.5368 194.5869 15.12688957 86476 CZ-4B R/B 1 29507U 06046C 26061.68263100 .00005730 00000+0 29130-3 0 9992 2 29507 97.5608 106.6100 0031855 292.8620 66.9250 15.16816041 58986 CZ-2C R/B 1 31114U 07010B 26061.75132180 .00000144 00000+0 85182-4 0 9996 2 31114 98.3977 175.3782 0058086 315.1529 44.4962 14.20243281978731 COSMO-SKYMED 1 1 31598U 07023A 26061.84436346 .00003878 00000+0 34689-3 0 9999 2 31598 97.8863 252.8222 0000835 85.9902 274.1414 14.96469537 13888 COSMOS 2428 1 31792U 07029A 26061.80918910 .00000085 00000+0 71447-4 0 9990 2 31792 70.9419 217.7848 0008729 284.4285 75.5867 14.12944272963125 SL-16 R/B 1 31793U 07029B 26061.79422001 -.00000188 00000+0 -72518-4 0 9996 2 31793 70.9755 186.8781 0002417 278.4023 233.4083 14.14834082964396 KORONAS-FOTON 1 33504U 09003A 26061.69657773 .00013226 00000+0 29745-3 0 9995 2 33504 82.4283 283.1490 0010685 173.5168 186.6220 15.43119150944666 CZ-2C R/B 1 37731U 11030B 26061.78902830 .00002200 00000+0 28281-3 0 9995 2 37731 97.8529 19.1907 0053062 14.4983 46.8443 14.81188581789070 H-2A R/B 1 38341U 12025E 26061.83540830 .00005048 00000+0 45800-3 0 9991 2 38341 98.4711 28.3333 0044018 336.9106 23.0133 14.95092804747190 SHIJIAN-16 (SJ-16) 1 39358U 13057A 26061.85801449 .00000681 00000+0 69432-4 0 9990 2 39358 74.9722 198.0194 0015800 130.3216 229.9355 14.92301002670485 SL-4 R/B 1 39679U 14021B 26061.55125535 .00017915 00000+0 39625-3 0 9998 2 39679 51.6078 12.0953 0098188 76.9823 284.2101 15.38895466655179 ALOS-2 1 39766U 14029A 26061.82034516 .00001942 00000+0 26684-3 0 9995 2 39766 97.9199 160.5171 0001425 100.1262 260.0110 14.79469332635857 YAOGAN-29 1 41038U 15069A 26061.84482822 .00000867 00000+0 11337-3 0 9998 2 41038 98.0153 90.2559 0002315 48.5816 311.5596 14.82987484554860 ASTRO-H (HITOMI) 1 41337U 16012A 26061.29654731 .00004339 00000+0 25508-3 0 9991 2 41337 31.0003 44.2536 0010021 257.6794 102.2722 15.09940737551119 HXMT (HUIYAN) 1 42758U 17034A 26061.86602787 .00006353 00000+0 32002-3 0 9996 2 42758 43.0149 54.6060 0032156 194.0063 165.9896 15.17355273481501 SAOCOM 1A 1 43641U 18076A 26061.80693141 .00000943 00000+0 12505-3 0 9998 2 43641 97.8883 250.0766 0001286 83.4475 276.6885 14.82160666400340 H-2A R/B 1 43682U 18084L 26061.59095046 .00022530 00000+0 54195-3 0 9995 2 43682 98.8738 277.4639 0025913 49.2078 311.1406 15.40984025404682 SAOCOM 1B 1 46265U 20059A 26061.83815559 .00000626 00000+0 85205-4 0 9995 2 46265 97.8884 249.2053 0001471 80.6266 279.5113 14.82164798297731 CSS (TIANHE) 1 48274U 21035A 26061.80363536 .00017409 00000+0 21017-3 0 9999 2 48274 41.4651 250.0496 0006617 230.1207 129.9050 15.60315912276531 COSMOS 2550 1 48865U 21056A 26061.86616021 -.00000183 00000+0 27367-6 0 9993 2 48865 67.1424 61.5723 0008381 269.6976 90.3218 15.33830804262419 CZ-2C R/B 1 52794U 22058K 26061.24589089 .00033239 00000+0 49712-3 0 9999 2 52794 50.1902 356.5623 0042153 169.0449 191.1449 15.53608022208971 CZ-2C R/B 1 54039U 22132E 26061.57868897 .00041736 00000+0 48949-3 0 9991 2 54039 97.2955 64.6834 0020770 113.8391 246.5046 15.61126003189261 GSLV R/B 1 54149U 22138AN 26061.76770190 .00004840 00000+0 41951-3 0 9999 2 54149 87.3884 168.6784 0021983 170.7176 189.4466 14.96712862182897 XRISM 1 57800U 23137A 26061.83857387 .00007710 00000+0 43942-3 0 9999 2 57800 31.0033 327.9739 0008219 329.5006 30.5154 15.11403909136750 ACS3 1 59588U 24077B 26061.80074936 .00019327 00000+0 15684-1 0 9993 2 59588 97.2116 4.4609 0054705 95.2616 265.4793 13.89238489 93245 SZ-21 MODULE 1 66515U 25246C 26061.55898934 .00039531 00000+0 34908-3 0 9995 2 66515 41.4734 247.2373 0001469 286.7563 73.3117 15.67907744 16956